Location: Bruneau Dunes Observatory
(42.9024°N, 115.6902°W)
Time: 05:36:56
(UTC-06:00)

Daily predictions for brighter satellites

Satellite Brightness Start Highest point End
(mag) Time Altitude Azimuth Time Altitude Azimuth Time Altitude Azimuth
H-2A R/B 4.4 00:16:33 20° NW 00:16:33 20° NW 00:18:31 10° NW
ATLAS 3B R/B 4.4 01:59:29 28° NNE 01:59:29 28° NNE 02:02:45 10° NNE
SL-16 R/B 4.5 02:47:24 23° NE 02:47:24 23° NE 02:51:13 10° N
CENTAUR R/B 3.8 03:30:30 35° NE 03:30:30 35° NE 03:34:27 10° NE
ARIANE 5 R/B 4.5 03:47:03 10° NNE 03:49:27 26° NE 03:49:27 26° NE
Cosmos 2322 Rocket 3.7 03:55:21 33° NE 03:55:21 33° NE 03:58:33 10° NE
SL-16 R/B 3.6 03:59:54 36° NE 03:59:54 36° NE 04:03:21 10° NNE
CZ-2D R/B 3.3 04:09:50 10° NNE 04:13:23 41° NNE 04:13:23 41° NNE
Resurs 1-4 Rocket 3.4 04:10:53 10° NNE 04:14:01 37° NNE 04:14:01 37° NNE
Cosmos 2315 Rocket 4.3 04:22:52 64° NE 04:22:52 64° NE 04:28:11 10° N
Cosmos 2360 Rocket 3.4 04:24:41 36° ESE 04:24:41 36° ESE 04:29:40 10° NE
Cosmos 1980 Rocket 3.7 04:27:24 27° NNW 04:27:24 27° NNW 04:30:35 10° N
SL-16 R/B 3.6 04:32:29 33° NNW 04:32:29 33° NNW 04:35:47 10° NNW
Cosmos 2263 Rocket 3.9 04:34:55 10° NNW 04:36:49 22° NNW 04:36:49 22° NNW
ADEOS II 4.2 04:37:35 10° NE 04:41:34 21° E 04:45:16 11° SE
Cosmos 2074 Rocket 4.3 04:46:00 10° N 04:52:14 64° E 04:55:57 25° SSE
Cosmos 2322 4.0 04:59:20 55° SSE 05:00:10 62° ESE 05:05:50 10° NNE
Meteor 1-18 Rocket 4.5 04:59:50 52° SSE 05:00:57 64° E 05:06:30 10° NNE
Okean O Rocket 2.8 05:03:53 10° NNE 05:08:05 39° E 05:09:24 32° SE
Okean 1 3.9 05:11:46 56° ENE 05:11:46 56° ENE 05:15:21 10° NNE
MOS 1-B 4.3 05:07:28 10° NNE 05:13:19 87° ESE 05:14:46 54° S
ADEOS Rocket 3.2 05:08:55 10° N 05:13:41 44° NW 05:13:41 44° NW
Cosmos 1500 4.2 05:12:55 10° N 05:15:40 43° NNE 05:15:40 43° NNE
CENTAUR R/B 3.5 05:17:40 30° WNW 05:18:56 32° NW 05:25:12 10° NNE
USA 215 3.2 05:13:55 10° SE 05:20:30 86° NE 05:27:06 10° NW
Cosmos 1975 3.0 05:18:46 10° N 05:22:25 68° NNE 05:22:25 68° NNE
COBE Rocket 4.5 05:18:39 10° N 05:22:59 44° NW 05:22:59 44° NW
Cosmos 1455 Rocket 2.9 05:20:18 10° N 05:24:44 90° W 05:24:52 85° S
Cosmos 2184 Rocket 3.9 05:21:37 10° NNW 05:27:48 72° W 05:31:55 22° S
CZ-4B R/B 3.8 05:23:15 10° NNE 05:28:49 56° E 05:33:32 14° S
ARIANE 5 R/B 4.0 05:26:49 10° NNW 05:29:48 22° NW 05:29:48 22° NW
Lacrosse 4 Rocket 1.3 05:27:04 10° NNW 05:31:16 88° ENE 05:35:33 10° SSE
Cosmos 1975 Rocket 4.5 05:32:55 25° NW 05:32:55 25° NW 05:35:14 10° N
PSLV R/B 3.6 05:30:24 10° NNE 05:33:55 77° N 05:33:55 77° N
Cosmos 2322 Rocket 3.3 05:37:10 26° WNW 05:37:26 26° NW 05:42:07 10° N
Cosmos 1570 Rocket 4.0 05:38:17 31° S 05:40:49 78° ESE 05:46:04 10° NNE
SL-16 R/B 3.4 05:41:46 25° WNW 05:42:16 25° NW 05:46:55 10° N
Cosmos 2237 4.1 05:42:01 33° SSW 05:44:43 88° WNW 05:50:30 10° NNE
COSMOS 2428 2.7 05:45:14 25° SSW 05:48:42 80° ESE 05:54:25 10° NNE
IRS-1C Rocket 4.0 05:43:59 10° NNE 05:49:17 88° ESE 05:53:13 18° SSW
Cosmos 1536 Rocket 3.5 05:49:39 42° SW 05:51:01 66° W 05:55:29 10° N
Cosmos 2219 Rocket 3.1 05:45:45 10° S 05:51:03 47° ESE 05:56:23 10° NE
CZ-2D R/B 3.8 05:51:23 10° NNW 05:54:44 17° WNW 05:54:44 17° WNW
Resurs 1-4 Rocket 3.9 05:52:23 10° NNW 05:55:06 15° NW 05:55:06 15° NW
Cosmos 1844 Rocket 2.6 05:52:42 10° NNW 05:58:19 87° ENE 06:03:53 10° SSE
MOS 1 Rocket 3.8 05:57:10 10° N 06:01:31 36° WNW 06:02:24 33° W
Cosmos 2154 Rocket 3.9 05:55:27 10° NNW 06:01:38 74° W 06:07:48 10° S
PSLV R/B 3.5 05:59:58 10° N 06:04:19 73° WNW 06:07:22 19° SSW
Tiangong 2 1.2 06:05:02 50° SSW 06:05:07 50° SSW 06:08:10 10° ESE
Meteor 1-19 Rocket 4.2 06:00:51 10° S 06:06:28 86° E 06:12:15 10° N
Okean 1-7 Rocket 4.1 06:03:03 10° S 06:07:31 63° E 06:11:58 10° NNE
Cosmos 2360 Rocket 2.9 06:06:28 27° W 06:08:32 35° WNW 06:13:42 10° N
Cosmos 1340 3.6 06:10:57 28° WNW 06:10:57 28° WNW 06:14:17 10° NNW
Cosmos 2278 Rocket 3.2 06:05:53 10° NNW 06:11:23 49° ENE 06:16:52 10° SE
Cosmos 1238 Rocket 2.0 06:12:55 40° SW 06:13:41 57° W 06:16:37 10° N
Cosmos 1937 Rocket 4.4 06:09:44 10° NNW 06:14:57 53° ENE 06:20:07 10° SE
SAR-Lupe-3 4.5 06:12:13 10° S 06:15:37 57° WSW 06:19:06 10° NNW
Cosmos 405 Rocket 4.2 06:12:02 10° SSE 06:15:51 41° E 06:19:40 10° NNE
DELTA 2 R/B (1) 3.8 06:12:48 25° WSW 06:15:57 57° S 06:21:23 10° E
CZ-4B R/B 3.4 06:13:32 10° N 06:16:47 32° WNW 06:17:35 29° W
Cosmos 2237 Rocket 3.3 06:12:12 10° S 06:17:35 46° ESE 06:23:00 10° NE
Cosmos 1666 2.6 06:15:15 10° N 06:19:08 83° W 06:23:01 10° S
Meteor 2-4 Rocket 3.8 06:15:06 10° S 06:20:42 82° E 06:26:11 10° NNE
ADEOS II 2.3 06:16:29 10° N 06:21:33 50° WNW 06:26:14 12° SW
Cosmos 1437 4.4 06:19:30 10° SSE 06:22:32 37° E 06:25:35 10° NNE
Cosmos 2181 Rocket 4.0 06:17:02 10° S 06:23:15 84° W 06:29:36 10° N
SL-8 Rocket 4.2 06:17:07 10° N 06:23:22 76° E 06:29:32 10° SSE
Cosmos 1743 3.1 06:20:31 10° NNW 06:24:11 41° W 06:27:47 10° SSW
ATLAS 5 CENTAUR R/B 2.7 06:22:51 10° NNW 06:28:49 71° NE 06:35:19 10° SE
Meteor 1-31 Rocket 2.7 06:25:52 10° NNE 06:29:42 89° ESE 06:33:30 10° SSW
Cosmos 2298 Rocket 4.1 06:24:32 10° NNW 06:29:55 86° ENE 06:35:15 10° SSE
Aureole 2 Rocket 3.3 06:28:57 10° S 06:32:31 50° ESE 06:35:50 10° NNE
Feng Yun 1-1 Rocket 4.4 06:28:02 10° NNE 06:33:56 85° ESE 06:39:41 10° SSW
CZ-2C R/B 4.3 06:30:24 10° SSW 06:34:33 33° W 06:38:41 10° NNW
Cosmos 2333 Rocket 2.3 06:30:55 10° SSW 06:36:37 87° ESE 06:42:24 10° NNE
Cosmos 1814 Rocket 4.3 06:31:58 10° S 06:37:09 71° ESE 06:42:17 10° NNE
EO 1 Del DPAF 4.4 06:34:27 11° SW 06:37:17 22° W 06:40:21 10° NW
SL-8 R/B 4.0 06:35:24 10° WNW 06:40:09 65° NNE 06:44:54 10° ESE
Cosmos 2341 Rocket 4.2 06:34:54 10° NNW 06:40:53 49° W 06:46:49 10° SSW
Okean O Rocket 3.0 06:40:51 10° NNW 06:44:12 21° WNW 06:46:52 13° WSW
Cosmos 2218 Rocket 4.0 06:42:13 10° N 06:48:39 83° W 06:54:58 10° S
Cosmos 2228 4.2 06:45:46 10° N 06:49:58 48° ENE 06:54:11 10° SSE
Meteor PRIRODA 4.4 06:48:35 10° N 06:52:01 34° WNW 06:55:25 10° SW
COSMO-SKYMED 1 2.8 06:47:53 10° SSE 06:52:13 77° ENE 06:56:34 10° N
Cosmos 1867 3.6 06:50:27 10° NW 06:55:53 69° WSW 07:01:16 10° SSE
Okean-O 2.8 06:52:14 10° N 06:56:33 52° WNW 07:00:51 10° SSW
Cosmos 1726 Rocket 3.6 06:52:41 10° N 06:57:09 82° W 07:01:36 10° S
Iridium 2 3.8 06:53:30 10° NNW 06:57:14 53° W 07:00:58 10° SSW
Cosmos 1025 Rocket 3.4 06:55:18 10° SSW 06:59:29 44° WNW 07:03:44 10° N
Cosmos 1844 4.2 06:58:25 10° NW 07:03:39 37° WSW 07:08:49 10° S
USA 215 4.2 06:58:35 10° S 07:03:58 27° SW 07:09:22 10° WNW
Cosmos 1892 Rocket 3.5 07:02:07 10° SSW 07:06:26 75° W 07:10:50 10° N
Cosmos 371 Rocket 3.7 07:02:01 10° S 07:06:50 70° ESE 07:11:43 10° NNE
CZ-4B R/B 4.5 07:04:37 10° NNW 07:08:56 23° WNW 07:13:13 10° WSW
Cosmos 332 Rocket 3.8 07:05:10 10° SSW 07:10:04 84° WNW 07:15:01 10° NNE
CZ-4C R/B 4.0 07:06:47 10° NNW 07:13:29 46° NE 07:20:55 10° ESE
